Volver al catálogo

STARLINK-5977

ActivoComunicacionesVLEO
NORAD 56791·PAYLOAD·🇺🇸 United States

Lanzado May 31, 2023 desde Vandenberg Space Force Base

Loading…

Próximos Pases (próximas 24 horas)

TLE

ActualizadoSource: CelesTrak SupGP

Época: Sep 14, 2026, 21:17 UTC

1 56791C 23078AA  26257.88729167  .00030142  00000+0  25258-2 0  2578
2 56791  70.0009 227.3203 0003275 266.2261  60.3200 14.98318926    10

Sigue STARLINK-5977 en tiempo real con AllMySat

Download on the App Store